Greenville, AL

7:55 AM CDT on May 23, 2017 (GMT -0500)
Greenville Municipal

Weather History for KPRN - May, 2014

Change the Weather History Date:

Thursday, May 15, 2014

  Actual Average Record
Temperature  
Mean Temperature 58 °F -  
Max Temperature 68 °F 85 °F 94 °F (1933)
Min Temperature 50 °F 59 °F 48 °F (1981)
Degree Days  
Heating Degree Days 6    
Growing Degree Days 8 (Base 50)    
Moisture  
Dew Point 50 °F    
Average Humidity 75    
Maximum Humidity 94    
Minimum Humidity 43    
Precipitation  
Precipitation 0.02 in - - ()
Sea Level Pressure  
Sea Level Pressure 30.05 in    
Wind  
Wind Speed 9 mph (NW)    
Max Wind Speed 16 mph    
Max Gust Speed 25 mph    
Visibility 9 miles    
Events Rain    
Averages and records for this station are not official NWS values.
T = Trace of Precipitation, MM = Missing Value Source: NWS Daily Summary

Daily Weather History Graph

Daily Weather History Graph

Search for Another Location

Airport or City:

Trip Planner

Search our weather history database for the weather conditions in past years. The results will help you decide how hot, cold, wet, or windy it might be!

Date:

Astronomy

May. 15, 2014 Rise Set
Actual Time 5:49 AM CDT 7:36 PM CDT
Civil Twilight 5:22 AM CDT 8:03 PM CDT
Nautical Twilight 4:50 AM CDT 8:35 PM CDT
Astronomical Twilight 4:16 AM CDT 9:10 PM CDT
Moon 8:44 PM CDT (5/15) 6:34 AM CDT (5/15)
Length of Visible Light 14h 40m
Length of Day
13h 47m
Full, 99% of the Moon is Illuminated
May 15
Full
May 21
Last Quarter
May 28
New
Jun 5
First Quarter
Jun 12
Full

Hourly Weather History & Observations

Time (CDT) Temp. Dew Point Humidity Pressure Visibility Wind Dir Wind Speed Gust Speed Precip Events Conditions
12:06 AM 62.6 °F 60.8 °F 94% 29.98 in 2.5 mi WNW 6.9 mph - 0.00 in Rain Light Rain
12:28 AM 60.8 °F 59.0 °F 94% 29.98 in 3.0 mi NNW 11.5 mph 17.3 mph 0.02 in Rain Light Rain
12:56 AM 60.1 °F 57.9 °F 93% 29.97 in 6.0 mi NW 10.4 mph - 0.02 in   Overcast
1:31 AM 59.0 °F 55.4 °F 88% 29.98 in 10.0 mi NW 6.9 mph - N/A   Overcast
1:45 AM 59.0 °F 55.4 °F 88% 29.98 in 10.0 mi WNW 9.2 mph 17.3 mph N/A   Overcast
1:56 AM 59.0 °F 55.9 °F 90% 29.97 in 10.0 mi NW 9.2 mph 19.6 mph N/A   Overcast
2:56 AM 57.0 °F 55.0 °F 93% 29.98 in 10.0 mi WNW 8.1 mph 16.1 mph N/A   Overcast
3:56 AM 55.9 °F 53.1 °F 90% 30.00 in 4.0 mi NNW 9.2 mph 17.3 mph 0.00 in Rain Light Rain
4:36 AM 55.4 °F 51.8 °F 88% 30.01 in 10.0 mi NW 8.1 mph 16.1 mph 0.00 in   Overcast
4:56 AM 55.0 °F 52.0 °F 89% 30.01 in 10.0 mi NNW 8.1 mph - 0.00 in   Overcast
5:56 AM 54.0 °F 51.1 °F 90% 30.02 in 10.0 mi NNW 10.4 mph 17.3 mph 0.00 in   Overcast
6:15 AM 53.6 °F 50.0 °F 88% 30.04 in 10.0 mi NW 5.8 mph 18.4 mph N/A   Overcast
6:56 AM 54.0 °F 50.0 °F 86% 30.05 in 10.0 mi NW 10.4 mph - N/A   Overcast
7:47 AM 53.6 °F 48.2 °F 82% - 10.0 mi NNW 11.5 mph 17.3 mph N/A   Overcast
7:56 AM 54.0 °F 48.9 °F 83% 30.06 in 10.0 mi NNW 9.2 mph 17.3 mph N/A   Overcast
8:56 AM 55.0 °F 48.0 °F 77% 30.07 in 10.0 mi NNW 10.4 mph 17.3 mph N/A   Overcast
9:56 AM 57.9 °F 46.9 °F 67% 30.08 in 10.0 mi NW 12.7 mph 17.3 mph N/A   Overcast
10:56 AM 60.1 °F 46.0 °F 60% 30.09 in 10.0 mi NW 12.7 mph 20.7 mph N/A   Overcast
11:54 AM 60.8 °F 46.4 °F 59% 30.10 in 10.0 mi NW 13.8 mph 20.7 mph N/A   Overcast
11:56 AM 60.1 °F 46.0 °F 60% 30.09 in 10.0 mi NW 11.5 mph 20.7 mph N/A   Overcast
12:56 PM 63.0 °F 46.0 °F 54% 30.09 in 10.0 mi NW 13.8 mph 19.6 mph N/A   Mostly Cloudy
2:56 PM 66.0 °F 44.1 °F 45% 30.06 in 10.0 mi NNW 13.8 mph 25.3 mph N/A   Mostly Cloudy
3:56 PM 66.9 °F 44.1 °F 44% 30.06 in 10.0 mi NNW 16.1 mph 24.2 mph N/A   Partly Cloudy
4:56 PM 66.0 °F 43.0 °F 43% 30.05 in 10.0 mi NW 10.4 mph - N/A   Clear
5:56 PM 64.9 °F 44.1 °F 47% 30.06 in 10.0 mi NW 12.7 mph 19.6 mph N/A   Clear
6:56 PM 64.0 °F 45.0 °F 50% 30.07 in 10.0 mi NNW 8.1 mph - N/A   Clear
7:56 PM 60.1 °F 46.0 °F 60% 30.09 in 10.0 mi NW 4.6 mph - N/A   Clear
8:56 PM 55.9 °F 46.9 °F 72% 30.11 in 10.0 mi Calm Calm - N/A   Clear
9:56 PM 53.1 °F 48.9 °F 86% 30.12 in 10.0 mi Calm Calm - N/A   Clear
10:56 PM 51.1 °F 48.0 °F 89% 30.13 in 10.0 mi Calm Calm - N/A   Clear
11:56 PM 50.0 °F 46.9 °F 89% 30.14 in 10.0 mi Calm Calm - N/A   Clear